Regional Weather Roundup
Issued by NWS Goodland, KS

Home | Current Version | Previous Version | Text Only | Print | Product List | Glossary Off
Versions: 1 2 3 4 5 6 7 8 9 10 11 12 13 14 15 16 17 18 19 20 21 22 23 24 25 26 27 28 29 30 31 32 33 34 35 36 37 38 39 40 41 42 43 44 45 46 47 48 49 50

000
ASUS43 KGLD 280359
RWRGLD

GOODLAND FORECAST AREA HOURLY WEATHER ROUNDUP
NATIONAL WEATHER SERVICE GOODLAND KS
1000 PM MDT TUE JUN 27 2017

...OFFICIAL OBSERVATIONS...

CITY           SKY/WX    TMP DP  RH WIND       PRES   REMARKS
GOODLAND KS    CLOUDY    77  53  43 S26G48    29.71F
HILL CITY KS   CLOUDY    85  60  42 S20G32    29.71R
IMPERIAL NEB   PTCLDY    80  45  28 S15G23    29.72R
MCCOOK NEB     CLOUDY    74  56  53 N8        29.68F
AKRON CO       CLEAR     72  40  31 N23G30    29.86R
BURLINGTON CO  CLOUDY    73  51  46 SE15      29.75R
LIMON CO       CLOUDY    60  47  61 NW7       29.88R
$$

...UNOFFICIAL OBSERVATIONS...

CITY           SKY/WX    TMP DP  RH WIND       PRES   REMARKS
LENORA KS        N/A     82  32  16 MISG        N/A
NORTON KS      CLEAR     81  52  36 S13G22    29.68
SHARON SPRINGS   N/A     82  60  46 SE9         N/A
TRENTON NEB      N/A     78  32  18 SW12        N/A
KIT CARSON CO    N/A     72  56  56 MISG        N/A
YUMA CO        FAIR      73  37  27 N20G26    29.82R
$$




USA.gov is the U.S. government's official web portal to all federal, state and local government web resources and services.